This is the latest recevied weather packets stored in our database for station/object K4DFD-13. If no packets are shown the sender has not sent any weather packets the latest 1 day(s).
| Time | Temp. | Humidity | Pressure | Rain* | Wind** | Luminosity | Snow |
|---|---|---|---|---|---|---|---|
| 1778058174 | 15.56° C | 74% | 1011.7 hPa | 0 mm | - | - | - |
| 1778057874 | 15.56° C | 74% | 1011.6 hPa | 0 mm | - | - | - |
| 1778057273 | 15.56° C | 73% | 1011.8 hPa | 0 mm | - | - | - |
| 1778056973 | 15.56° C | 72% | 1011.9 hPa | 0 mm | - | - | - |
| 1778056372 | 15.56° C | 71% | 1011.9 hPa | 0 mm | - | - | - |
| 1778055471 | 16.11° C | 69% | 1011.9 hPa | 0 mm | - | - | - |
| 1778055170 | 16.11° C | 68% | 1012 hPa | 0 mm | - | - | - |
| 1778054870 | 16.11° C | 67% | 1012.1 hPa | 0 mm | - | - | - |
| 1778054570 | 16.11° C | 67% | 1012.1 hPa | 0 mm | - | - | - |
| 1778053969 | 16.67° C | 66% | 1012.1 hPa | 0 mm | - | - | - |
| 1778053669 | 16.67° C | 65% | 1012.2 hPa | 0 mm | - | - | - |
| 1778053368 | 16.67° C | 65% | 1012.5 hPa | 0 mm | - | - | - |
| 1778052768 | 16.67° C | 64% | 1012.1 hPa | 0 mm | - | - | - |
| 1778052167 | 17.22° C | 63% | 1011.9 hPa | 0 mm | - | - | - |
| 1778051867 | 17.22° C | 62% | 1012 hPa | 0 mm | - | - | - |
| 1778051266 | 17.22° C | 61% | 1011.8 hPa | 0 mm | - | - | - |
| 1778050966 | 17.22° C | 61% | 1011.7 hPa | 0 mm | - | - | - |
| 1778050665 | 17.22° C | 61% | 1011.8 hPa | 0 mm | - | - | - |
| 1778050365 | 16.67° C | 61% | 1011.8 hPa | 0 mm | - | - | - |
| 1778050065 | 16.67° C | 62% | 1011.9 hPa | 0 mm | - | - | - |
| 1778049464 | 16.11° C | 64% | 1012.1 hPa | 0 mm | - | - | - |
| 1778049164 | 16.11° C | 65% | 1012.2 hPa | 0 mm | - | - | - |
| 1778048563 | 16.11° C | 64% | 1012.3 hPa | 0 mm | - | - | - |
| 1778047962 | 16.11° C | 63% | 1012.4 hPa | 0 mm | - | - | - |
| 1778047661 | 15.56° C | 64% | 1012.5 hPa | 0 mm | - | - | - |
* Rain latest hour (hover to see other rain measurements)
** Current wind speed in m/s (hover to see current wind gust speed)